Location: Houhaj�rvi
(61.2833°N, 23.0000°E)
Time: 19:43:46
(UTC+00:00)

USA 234 - Pass Details

Date: 27 February 2020
Orbit: 1101 x 1107 km, 123.0° (Epoch: 03 April)

Event Time Altitude Azimuth Distance (km) Brightness Sun altitude
Exits shadow 18:55:19 39° 143° (SE) 1,585 3.6 -23.0°
Maximum altitude 18:57:30 56° 197° (SSW) 1,301 3.5 -23.2°
Drops below altitude 10° 19:03:55 10° 275° (W) 2,967 6.4 -23.9°
Sets 19:06:29 0° 279° (W) 3,927 7.3 -24.2°
